Location: Alpha Ridge Park
(39.3209°N, 76.9128°W)
Time: 16:46:57
(UTC-04:00)

Vanguard 2 - Visible Passes

Search period start: 21 May 2019 00:00
Search period end: 31 May 2019 00:00
Orbit: 553 x 2939 km, 32.9° (Epoch: 21 May)

Date Brightness Start Highest point End Pass type
(mag) Time Alt. Az. Time Alt. Az. Time Alt. Az.
21 May 9.6 00:02:47 10° W 00:09:21 29° SW 00:09:21 29° SW visible
21 May 9.2 22:07:43 10° W 22:20:22 55° SSW 22:24:49 29° SE visible
22 May 10.0 00:21:22 10° W 00:26:13 21° WSW 00:26:13 21° WSW visible
22 May 9.2 22:25:58 10° W 22:38:09 49° SSW 22:41:39 34° SSE visible
23 May 10.4 00:40:23 10° W 00:43:03 15° WSW 00:43:03 15° WSW visible
23 May 9.8 20:30:36 10° W 20:46:15 65° S 20:56:03 10° ESE visible
23 May 9.3 22:44:17 10° W 22:55:50 42° SSW 22:58:29 35° S visible
24 May 9.8 20:48:49 10° W 21:04:13 62° SSW 21:13:50 10° ESE visible
24 May 9.5 23:02:44 10° W 23:13:23 34° SW 23:15:18 32° SSW visible
25 May 9.8 21:07:04 10° W 21:22:06 58° SSW 21:30:43 14° ESE visible
25 May 9.8 23:21:22 10° W 23:30:47 27° SW 23:32:06 26° SSW visible
26 May 9.9 21:25:22 10° W 21:39:54 52° SSW 21:47:32 18° SE visible
26 May 10.2 23:40:24 10° W 23:48:05 20° SW 23:48:55 20° SW visible
27 May 9.9 21:43:43 10° W 21:57:34 44° SSW 22:04:20 20° SSE visible
28 May 10.6 00:00:19 10° WSW 00:05:16 14° SW 00:05:44 14° SW visible
28 May 10.0 22:02:12 10° W 22:15:06 37° SW 22:21:10 21° SSE visible
29 May 10.2 22:20:53 10° W 22:32:30 29° SW 22:38:00 19° S visible
30 May 10.5 22:39:57 10° W 22:49:47 22° SW 22:54:51 16° SSW visible
